Location: Gadern
(49.5873°N, 8.8138°E)
Time: 06:20:55
(UTC+00:00)

Cosmos 2333 Rocket - Pass Details

Date: 19 May 2025
Orbit: 840 x 862 km, 70.8° (Epoch: 14 June)

Event Time Altitude Azimuth Distance (km) Brightness Sun altitude
Rises 22:04:06 0° 333° (NNW) 3,443 7.0 -18.4°
Reaches altitude 10° 22:06:43 10° 340° (NNW) 2,500 5.9 -18.5°
Maximum altitude 22:12:10 43° 51° (NE) 1,192 3.1 -18.8°
Enters shadow 22:15:54 19° 114° (ESE) 1,915 3.7 -18.9°
